Location: Arpaise
(41.0333°N, 14.7333°E)
Time: 22:09:55
(UTC+00:00)

Cosmos 846 Rocket - Pass Details

Date: 20 January 2021
Orbit: 948 x 991 km, 82.9° (Epoch: 06 March)

Event Time Altitude Azimuth Distance (km) Brightness Sun altitude
Rises 16:47:24 0° 130° (SE) 3,672 8.2 -8.5°
Reaches altitude 10° 16:51:35 10° 103° (ESE) 2,721 7.3 -9.2°
Maximum altitude 16:54:02 13° 79° (E) 2,533 7.0 -9.7°
Enters shadow 16:55:04 12° 69° (ENE) 2,566 7.0 -9.9°
